Tracking 29892 objects as of 21-Nov-2024
HD Live streaming from Space Station
objects crossing your sky now

COSMOS 1375 DEB

Track COSMOS 1375 DEB now!
10-day predictions


NORAD ID: 18414
Int'l Code: 1982-055BD
Perigee: 950.9 km
Apogee: 978.5 km
Inclination: 65.8 °
Period: 104.2 minutes
Semi major axis: 7335 km
RCS: 0.0175 m2 (small)
Launch date: June 6, 1982
Source: Commonwealth of Independent States (former USSR) (CIS)
Launch site: PLESETSK MISSILE AND SPACE COMPLEX (PKMTR)

Note: This is SATELLITE DEBRIS
Your satellite tracking list
Your tracking list is empty




NASA's NSSDC Master Catalog

Two Line Element Set (TLE):
1 18414U 82055BD  24325.14843090  .00000636  00000-0  66960-3 0  9998
2 18414  65.8308 220.8305 0018825 210.2786 299.5727 13.81791566965873
Source of the keplerian elements: AFSPC